• In Uzbekistan
  • List of Countries
  • For 7 days
  • Water Temperature
  • Satellite Maps
  • Weather Map
  • Weather Widgets
  • user-avatar
    Login

    Hourly Weather Borovkovskiy

    Today, 19 August, Sunday

    Time Temperature Precipitation Wind Pressure Humidity
    00:00 +15°C° 0 mm 1 mps 746 mmHg 70%
    01:00 +15°C° 0 mm 1 mps 746 mmHg 71%
    02:00 +15°C° 0 mm 1 mps 746 mmHg 72%
    03:00 +14°C° 0 mm 1 mps 746 mmHg 76%
    04:00 +14°C° 0 mm 1 mps 746 mmHg 77%
    05:00 +14°C° 0 mm 1 mps 746 mmHg 78%
    06:00 +14°C° 0 mm 1 mps 746 mmHg 79%
    07:00 +16°C° 0 mm 1 mps 746 mmHg 74%
    08:00 +18°C° 0 mm 2 mps 746 mmHg 69%
    09:00 +21°C° 0 mm 2 mps 746 mmHg 63%
    10:00 +23°C° 0 mm 2 mps 746 mmHg 59%
    11:00 +24°C° 0 mm 3 mps 745 mmHg 55%
    12:00 +25°C° 0 mm 3 mps 745 mmHg 51%
    13:00 +26°C° 0 mm 3 mps 745 mmHg 51%
    14:00 +26°C° 0 mm 3 mps 744 mmHg 50%
    15:00 +26°C° 0 mm 3 mps 744 mmHg 50%
    16:00 +26°C° 0 mm 3 mps 744 mmHg 54%
    17:00 +25°C° 0 mm 3 mps 744 mmHg 58%
    18:00 +25°C° 0 mm 3 mps 743 mmHg 62%
    19:00 +22°C° 0 mm 3 mps 743 mmHg 65%
    20:00 +20°C° 0 mm 3 mps 743 mmHg 69%
    21:00 +19°C° 0 mm 3 mps 743 mmHg 73%
    22:00 +18°C° 0 mm 3 mps 743 mmHg 74%
    23:00 +18°C° 0 mm 3 mps 743 mmHg 74%

    Tomorrow, 20 August, Monday

    Time Temperature Precipitation Wind Pressure Humidity
    00:00 +17°C° 0 mm 3 mps 742 mmHg 75%
    01:00 +17°C° 0 mm 3 mps 742 mmHg 77%
    02:00 +17°C° 0 mm 3 mps 742 mmHg 78%
    03:00 +16°C° 0 mm 3 mps 742 mmHg 80%
    04:00 +16°C° 0 mm 3 mps 742 mmHg 82%
    05:00 +16°C° 0 mm 3 mps 742 mmHg 83%
    06:00 +16°C° 0 mm 3 mps 742 mmHg 85%
    07:00 +17°C° 0 mm 3 mps 742 mmHg 81%
    08:00 +19°C° 0 mm 3 mps 742 mmHg 77%
    09:00 +21°C° 0 mm 3 mps 742 mmHg 73%
    10:00 +22°C° 0.1 mm 3 mps 742 mmHg 68%
    11:00 +23°C° 0.1 mm 4 mps 742 mmHg 63%
    12:00 +26°C° 0.1 mm 4 mps 742 mmHg 59%
    13:00 +26°C° 0.1 mm 4 mps 741 mmHg 57%
    14:00 +27°C° 0.1 mm 4 mps 741 mmHg 56%
    15:00 +27°C° 0.1 mm 4 mps 741 mmHg 55%
    16:00 +26°C° 0.2 mm 4 mps 740 mmHg 59%
    17:00 +26°C° 0.2 mm 3 mps 740 mmHg 64%
    18:00 +25°C° 0.2 mm 3 mps 740 mmHg 68%
    19:00 +24°C° 0 mm 3 mps 740 mmHg 74%
    20:00 +21°C° 0 mm 3 mps 740 mmHg 79%
    21:00 +19°C° 0 mm 2 mps 739 mmHg 85%
    22:00 +19°C° 0 mm 2 mps 739 mmHg 87%
    23:00 +18°C° 0 mm 2 mps 739 mmHg 88%

    Day after tomorrow, 21 August, Tuesday

    Time Temperature Precipitation Wind Pressure Humidity
    00:00 +18°C° 0 mm 3 mps 739 mmHg 90%
    01:00 +18°C° 0 mm 3 mps 738 mmHg 91%
    02:00 +17°C° 0 mm 3 mps 738 mmHg 91%
    03:00 +17°C° 0 mm 3 mps 738 mmHg 92%
    04:00 +17°C° 0 mm 3 mps 737 mmHg 92%
    05:00 +17°C° 0 mm 3 mps 737 mmHg 92%
    06:00 +17°C° 0 mm 4 mps 737 mmHg 91%
    07:00 +19°C° 0 mm 5 mps 737 mmHg 85%
    08:00 +20°C° 0 mm 6 mps 736 mmHg 78%
    09:00 +22°C° 0 mm 6 mps 736 mmHg 71%
    10:00 +23°C° 0.3 mm 7 mps 736 mmHg 69%
    11:00 +24°C° 0.3 mm 8 mps 735 mmHg 66%
    12:00 +26°C° 0.3 mm 8 mps 735 mmHg 64%
    13:00 +24°C° 1.1 mm 8 mps 735 mmHg 67%
    14:00 +24°C° 1.1 mm 8 mps 734 mmHg 71%
    15:00 +23°C° 1.1 mm 8 mps 734 mmHg 74%
    16:00 +22°C° 0.7 mm 7 mps 734 mmHg 75%
    17:00 +22°C° 0.7 mm 6 mps 734 mmHg 76%
    18:00 +21°C° 0.7 mm 5 mps 734 mmHg 78%
    19:00 +19°C° 0 mm 4 mps 735 mmHg 80%
    20:00 +18°C° 0 mm 4 mps 735 mmHg 82%
    21:00 +16°C° 0 mm 3 mps 736 mmHg 85%
    22:00 +14°C° 0 mm 3 mps 736 mmHg 85%
    23:00 +13°C° 0 mm 3 mps 737 mmHg 86%

    22 August, Wednesday

    Time Temperature Precipitation Wind Pressure Humidity
    00:00 +12°C° 0 mm 3 mps 737 mmHg 87%
    01:00 +12°C° 0 mm 4 mps 737 mmHg 87%
    02:00 +11°C° 0 mm 4 mps 738 mmHg 87%
    03:00 +11°C° 0 mm 4 mps 738 mmHg 87%
    04:00 +11°C° 0 mm 4 mps 738 mmHg 88%
    05:00 +11°C° 0 mm 4 mps 739 mmHg 89%
    06:00 +10°C° 0 mm 5 mps 739 mmHg 89%
    07:00 +12°C° 0 mm 5 mps 740 mmHg 84%
    08:00 +13°C° 0 mm 5 mps 740 mmHg 78%
    09:00 +13°C° 0 mm 6 mps 741 mmHg 72%
    10:00 +15°C° 0 mm 6 mps 741 mmHg 65%
    11:00 +16°C° 0 mm 6 mps 741 mmHg 58%
    12:00 +17°C° 0 mm 6 mps 741 mmHg 51%
    13:00 +17°C° 0 mm 6 mps 742 mmHg 51%
    14:00 +17°C° 0 mm 6 mps 742 mmHg 50%
    15:00 +17°C° 0 mm 6 mps 742 mmHg 49%
    16:00 +17°C° 0 mm 5 mps 743 mmHg 52%
    17:00 +16°C° 0 mm 5 mps 743 mmHg 55%
    18:00 +17°C° 0 mm 4 mps 743 mmHg 58%
    19:00 +14°C° 0 mm 3 mps 744 mmHg 62%
    20:00 +12°C° 0 mm 3 mps 744 mmHg 66%
    21:00 +12°C° 0 mm 2 mps 745 mmHg 70%
    22:00 +10°C° 0 mm 2 mps 745 mmHg 71%
    23:00 +10°C° 0 mm 2 mps 745 mmHg 73%

    23 August, Thursday

    Time Temperature Precipitation Wind Pressure Humidity
    00:00 +9°C° 0 mm 2 mps 746 mmHg 74%
    01:00 +9°C° 0 mm 2 mps 746 mmHg 75%
    02:00 +8°C° 0 mm 2 mps 746 mmHg 76%
    03:00 +8°C° 0 mm 2 mps 746 mmHg 77%
    04:00 +8°C° 0 mm 2 mps 747 mmHg 78%
    05:00 +9°C° 0 mm 1 mps 747 mmHg 79%
    06:00 +9°C° 0 mm 1 mps 747 mmHg 79%
    07:00 +11°C° 0 mm 1 mps 747 mmHg 73%
    08:00 +13°C° 0 mm 1 mps 747 mmHg 66%
    09:00 +15°C° 0 mm 1 mps 748 mmHg 59%
    10:00 +16°C° 0 mm 1 mps 748 mmHg 54%
    11:00 +17°C° 0 mm 2 mps 748 mmHg 50%
    12:00 +19°C° 0 mm 2 mps 747 mmHg 45%
    13:00 +19°C° 0 mm 2 mps 747 mmHg 44%
    14:00 +20°C° 0 mm 2 mps 747 mmHg 43%
    15:00 +20°C° 0 mm 2 mps 747 mmHg 42%
    16:00 +20°C° 0 mm 2 mps 747 mmHg 47%
    17:00 +19°C° 0 mm 2 mps 746 mmHg 51%
    18:00 +20°C° 0 mm 1 mps 746 mmHg 55%
    19:00 +17°C° 0 mm 2 mps 746 mmHg 58%
    20:00 +15°C° 0 mm 2 mps 746 mmHg 61%
    21:00 +13°C° 0 mm 2 mps 746 mmHg 65%
    22:00 +13°C° 0 mm 2 mps 746 mmHg 65%
    23:00 +13°C° 0 mm 2 mps 747 mmHg 66%

    24 August, Friday

    Time Temperature Precipitation Wind Pressure Humidity
    00:00 +12°C° 0 mm 2 mps 747 mmHg 67%
    01:00 +12°C° 0 mm 2 mps 747 mmHg 68%
    02:00 +10°C° 0 mm 2 mps 747 mmHg 69%
    03:00 +10°C° 0 mm 2 mps 747 mmHg 70%
    04:00 +10°C° 0 mm 2 mps 747 mmHg 71%
    05:00 +10°C° 0 mm 2 mps 747 mmHg 73%
    06:00 +10°C° 0 mm 2 mps 747 mmHg 74%
    07:00 +13°C° 0 mm 2 mps 747 mmHg 69%
    08:00 +15°C° 0 mm 2 mps 747 mmHg 64%
    09:00 +17°C° 0 mm 2 mps 747 mmHg 59%
    10:00 +18°C° 0 mm 3 mps 747 mmHg 54%
    11:00 +20°C° 0 mm 3 mps 747 mmHg 50%
    12:00 +21°C° 0 mm 3 mps 747 mmHg 46%
    13:00 +21°C° 0 mm 3 mps 747 mmHg 46%
    14:00 +22°C° 0 mm 3 mps 746 mmHg 45%
    15:00 +22°C° 0 mm 3 mps 746 mmHg 44%
    16:00 +22°C° 0 mm 3 mps 746 mmHg 48%
    17:00 +21°C° 0 mm 2 mps 746 mmHg 52%
    18:00 +21°C° 0 mm 2 mps 745 mmHg 56%
    19:00 +19°C° 0 mm 2 mps 745 mmHg 60%
    20:00 +17°C° 0 mm 2 mps 745 mmHg 63%
    21:00 +15°C° 0 mm 2 mps 745 mmHg 67%
    22:00 +15°C° 0 mm 2 mps 745 mmHg 68%
    23:00 +14°C° 0 mm 2 mps 746 mmHg 69%
    Show more